Location: Newark
(43.6583°N, 1.6617°E)
Time: 03:20:22
(UTC+00:00)

Vanguard 2 Rocket - Pass Details

Date: 23 August 2019
Orbit: 554 x 3327 km, 32.9° (Epoch: 19 September)

Event Time Altitude Azimuth Distance (km) Brightness Sun altitude
Exits shadow 00:57:17 23° 137° (SE) 3,694 9.7 -33.0°
Maximum altitude 00:57:30 23° 136° (SE) 3,714 9.7 -33.0°
Drops below altitude 10° 01:08:37 10° 92° (E) 5,625 11.1 -32.3°
Sets 01:15:00 0° 81° (E) 7,006 11.8 -31.9°
